Time,TemperatureF,DewpointF,PressureIn,WindDirection,WindDirectionDegrees,WindSpeedMPH,WindSpeedGustMPH,Humidity,HourlyPrecipIn,Conditions,Clouds,dailyrainin,SoftwareType,DateUTC
2013-01-27 00:31:00,28.0,27.0,-100.00,West,280,3.0,-999.0,95,-99.99,,,-99.99,,2013-01-27 07:31:00,
2013-01-27 00:41:00,28.0,27.0,-100.00,West,280,3.0,-999.0,95,-99.99,,,-99.99,,2013-01-27 07:41:00,
2013-01-27 00:51:00,28.0,27.0,-100.00,West,280,3.0,-999.0,95,-99.99,,,-99.99,,2013-01-27 07:51:00,
2013-01-27 01:32:00,26.0,24.0,-100.00,North,350,7.0,-999.0,92,-99.99,,,-99.99,,2013-01-27 08:32:00,
2013-01-27 01:42:00,26.0,24.0,-100.00,North,350,7.0,-999.0,92,-99.99,,,-99.99,,2013-01-27 08:42:00,
2013-01-27 01:52:00,26.0,24.0,-100.00,North,350,7.0,-999.0,92,-99.99,,,-99.99,,2013-01-27 08:52:00,
2013-01-27 02:32:00,25.0,24.0,-100.00,SW,220,1.0,-999.0,96,-99.99,,,-99.99,,2013-01-27 09:32:00,
2013-01-27 02:41:00,25.0,24.0,-100.00,SW,220,1.0,-999.0,96,-99.99,,,-99.99,,2013-01-27 09:41:00,
2013-01-27 02:51:00,25.0,24.0,-100.00,SW,220,1.0,-999.0,96,-99.99,,,-99.99,,2013-01-27 09:51:00,
2013-01-27 03:32:00,26.0,25.0,-100.00,SSW,200,3.0,-999.0,95,-99.99,,,-99.99,,2013-01-27 10:32:00,
2013-01-27 03:42:00,26.0,25.0,-100.00,SSW,200,3.0,-999.0,95,-99.99,,,-99.99,,2013-01-27 10:42:00,
2013-01-27 03:51:00,26.0,25.0,-100.00,SSW,200,3.0,-999.0,95,-99.99,,,-99.99,,2013-01-27 10:51:00,
2013-01-27 04:32:00,28.0,27.0,-100.00,WSW,250,5.0,-999.0,95,-99.99,,,-99.99,,2013-01-27 11:32:00,
2013-01-27 04:42:00,28.0,27.0,-100.00,WSW,250,5.0,-999.0,95,-99.99,,,-99.99,,2013-01-27 11:42:00,
2013-01-27 04:52:00,28.0,27.0,-100.00,WSW,250,5.0,-999.0,95,-99.99,,,-99.99,,2013-01-27 11:52:00,
2013-01-27 05:32:00,29.0,28.0,-100.00,WNW,300,3.0,-999.0,96,-99.99,,,-99.99,,2013-01-27 12:32:00,
2013-01-27 05:42:00,29.0,28.0,-100.00,WNW,300,3.0,-999.0,96,-99.99,,,-99.99,,2013-01-27 12:42:00,
2013-01-27 05:52:00,29.0,28.0,-100.00,WNW,300,3.0,-999.0,96,-99.99,,,-99.99,,2013-01-27 12:52:00,
2013-01-27 06:32:00,30.0,30.0,-100.00,SSW,210,3.0,-999.0,100,-99.99,,,-99.99,,2013-01-27 13:32:00,
2013-01-27 06:42:00,30.0,30.0,-100.00,SSW,210,3.0,-999.0,100,-99.99,,,-99.99,,2013-01-27 13:42:00,
2013-01-27 06:52:00,30.0,30.0,-100.00,SSW,210,3.0,-999.0,100,-99.99,,,-99.99,,2013-01-27 13:52:00,
2013-01-27 08:32:00,30.0,30.0,-100.00,NW,320,3.0,-999.0,100,-99.99,,,-99.99,,2013-01-27 15:32:00,
2013-01-27 08:42:00,30.0,30.0,-100.00,NW,320,3.0,-999.0,100,-99.99,,,-99.99,,2013-01-27 15:42:00,
2013-01-27 08:52:00,30.0,30.0,-100.00,NW,320,3.0,-999.0,100,-99.99,,,-99.99,,2013-01-27 15:52:00,
2013-01-27 09:32:00,33.0,30.0,-100.00,NW,320,3.0,-999.0,88,-99.99,,,-99.99,,2013-01-27 16:32:00,
2013-01-27 09:42:00,33.0,30.0,-100.00,NW,320,3.0,-999.0,88,-99.99,,,-99.99,,2013-01-27 16:42:00,
2013-01-27 09:52:00,33.0,30.0,-100.00,NW,320,3.0,-999.0,88,-99.99,,,-99.99,,2013-01-27 16:52:00,
2013-01-27 10:32:00,34.0,30.0,-100.00,West,270,3.0,-999.0,85,-99.99,,,-99.99,,2013-01-27 17:32:00,
2013-01-27 10:42:00,34.0,30.0,-100.00,West,270,3.0,-999.0,85,-99.99,,,-99.99,,2013-01-27 17:42:00,
2013-01-27 10:52:00,34.0,30.0,-100.00,West,270,3.0,-999.0,85,-99.99,,,-99.99,,2013-01-27 17:52:00,
2013-01-27 11:32:00,39.0,30.0,-100.00,SSE,160,3.0,-999.0,69,-99.99,,,-99.99,,2013-01-27 18:32:00,
2013-01-27 11:42:00,39.0,30.0,-100.00,SSE,160,3.0,-999.0,69,-99.99,,,-99.99,,2013-01-27 18:42:00,
2013-01-27 11:52:00,39.0,30.0,-100.00,SSE,160,3.0,-999.0,69,-99.99,,,-99.99,,2013-01-27 18:52:00,
2013-01-27 12:32:00,39.0,27.0,-100.00,West,270,3.0,-999.0,61,-99.99,,,-99.99,,2013-01-27 19:32:00,
2013-01-27 12:42:00,39.0,27.0,-100.00,West,270,3.0,-999.0,61,-99.99,,,-99.99,,2013-01-27 19:42:00,
2013-01-27 12:52:00,39.0,27.0,-100.00,West,270,3.0,-999.0,61,-99.99,,,-99.99,,2013-01-27 19:52:00,
2013-01-27 13:33:00,42.0,25.0,-100.00,WNW,300,8.0,-999.0,50,-99.99,,,-99.99,,2013-01-27 20:33:00,
2013-01-27 13:42:00,42.0,25.0,-100.00,WNW,300,8.0,-999.0,50,-99.99,,,-99.99,,2013-01-27 20:42:00,
2013-01-27 13:52:00,42.0,25.0,-100.00,WNW,300,8.0,-999.0,50,-99.99,,,-99.99,,2013-01-27 20:52:00,
2013-01-27 14:33:00,41.0,25.0,-100.00,NW,310,8.0,-999.0,52,-99.99,,,-99.99,,2013-01-27 21:33:00,
2013-01-27 14:42:00,41.0,25.0,-100.00,NW,310,8.0,-999.0,52,-99.99,,,-99.99,,2013-01-27 21:42:00,
2013-01-27 14:52:00,41.0,25.0,-100.00,NW,310,8.0,-999.0,52,-99.99,,,-99.99,,2013-01-27 21:52:00,
2013-01-27 16:32:00,37.0,26.0,-100.00,WNW,300,3.0,-999.0,64,-99.99,,,-99.99,,2013-01-27 23:32:00,
2013-01-27 16:42:00,37.0,26.0,-100.00,WNW,300,3.0,-999.0,64,-99.99,,,-99.99,,2013-01-27 23:42:00,
2013-01-27 16:52:00,37.0,26.0,-100.00,WNW,300,3.0,-999.0,64,-99.99,,,-99.99,,2013-01-27 23:52:00,
2013-01-27 17:32:00,36.0,25.0,-100.00,NW,310,5.0,-999.0,63,-99.99,,,-99.99,,2013-01-28 00:32:00,
2013-01-27 17:42:00,36.0,25.0,-100.00,NW,310,5.0,-999.0,63,-99.99,,,-99.99,,2013-01-28 00:42:00,
2013-01-27 17:51:00,36.0,25.0,-100.00,NW,310,5.0,-999.0,63,-99.99,,,-99.99,,2013-01-28 00:51:00,
2013-01-27 18:33:00,33.0,23.0,-100.00,NW,310,5.0,-999.0,66,-99.99,,,-99.99,,2013-01-28 01:33:00,
2013-01-27 18:42:00,33.0,23.0,-100.00,NW,310,5.0,-999.0,66,-99.99,,,-99.99,,2013-01-28 01:42:00,
2013-01-27 18:52:00,33.0,23.0,-100.00,NW,310,5.0,-999.0,66,-99.99,,,-99.99,,2013-01-28 01:52:00,
2013-01-27 19:32:00,34.0,25.0,-100.00,WNW,290,3.0,-999.0,69,-99.99,,,-99.99,,2013-01-28 02:32:00,
2013-01-27 19:42:00,34.0,25.0,-100.00,WNW,290,3.0,-999.0,69,-99.99,,,-99.99,,2013-01-28 02:42:00,
2013-01-27 19:52:00,34.0,25.0,-100.00,WNW,290,3.0,-999.0,69,-99.99,,,-99.99,,2013-01-28 02:52:00,
2013-01-27 20:32:00,34.0,25.0,-100.00,West,260,3.0,-999.0,69,-99.99,,,-99.99,,2013-01-28 03:32:00,
2013-01-27 20:42:00,34.0,25.0,-100.00,West,260,3.0,-999.0,69,-99.99,,,-99.99,,2013-01-28 03:42:00,
2013-01-27 20:52:00,34.0,25.0,-100.00,West,260,3.0,-999.0,69,-99.99,,,-99.99,,2013-01-28 03:52:00,
2013-01-27 21:32:00,32.0,23.0,-100.00,WSW,240,3.0,-999.0,69,-99.99,,,-99.99,,2013-01-28 04:32:00,
2013-01-27 21:42:00,32.0,23.0,-100.00,WSW,240,3.0,-999.0,69,-99.99,,,-99.99,,2013-01-28 04:42:00,
2013-01-27 21:52:00,32.0,23.0,-100.00,WSW,240,3.0,-999.0,69,-99.99,,,-99.99,,2013-01-28 04:52:00,
2013-01-27 22:32:00,32.0,22.0,-100.00,WSW,240,3.0,-999.0,65,-99.99,,,-99.99,,2013-01-28 05:32:00,
2013-01-27 22:42:00,32.0,22.0,-100.00,WSW,240,3.0,-999.0,65,-99.99,,,-99.99,,2013-01-28 05:42:00,
2013-01-27 22:52:00,32.0,22.0,-100.00,WSW,240,3.0,-999.0,65,-99.99,,,-99.99,,2013-01-28 05:52:00,
2013-01-27 23:32:00,33.0,24.0,-100.00,North,0,0.0,-999.0,69,-99.99,,,-99.99,,2013-01-28 06:32:00,
2013-01-27 23:42:00,33.0,24.0,-100.00,North,0,0.0,-999.0,69,-99.99,,,-99.99,,2013-01-28 06:42:00,
2013-01-27 23:52:00,33.0,24.0,-100.00,North,0,0.0,-999.0,69,-99.99,,,-99.99,,2013-01-28 06:52:00,